STARLINK-34570

Last updated on Tue Aug 19 2025 00:02:06 GMT+0000 (Coordinated Universal Time)

1 64860U 25152U 25230.56223174 .00032437 00000+0 59501-3 0 9992 2 64860 97.6035 84.2117 0001737 95.2541 264.8907 15.49220987 4785

Satellite not in orbit

STARLINK-34570